| time (UTC) | temp F | wind direction | speed MPH | gust MPH | rain 1hr in | rain 24hr in | rain mn in | humidity % | barometer mb |
| 20260504002927 | 77 | 164 | 0.0 | 1.0 | 0.00 | 0.00 | 0.00 | 41 | 1017.1 |
| 20260504002426 | 77 | 163 | 0.0 | 2.0 | 0.00 | 0.00 | 0.00 | 39 | 1017.2 |
| 20260504001926 | 77 | 163 | 0.0 | 2.0 | 0.00 | 0.00 | 0.00 | 38 | 1017.1 |
| 20260504001426 | 78 | 163 | 0.0 | 1.0 | 0.00 | 0.00 | 0.00 | 37 | 1017.2 |
| 20260504000926 | 78 | 163 | 0.0 | 1.0 | 0.00 | 0.00 | 0.00 | 37 | 1017.1 |
| 20260504000431 | 79 | 163 | 0.0 | 1.0 | 0.00 | 0.00 | 0.00 | 37 | 1017.2 |
| 20260503235926 | 79 | 163 | 0.0 | 1.0 | 0.00 | 0.00 | 0.00 | 37 | 1017.2 |
| 20260503235427 | 79 | 163 | 1.0 | 1.0 | 0.00 | 0.00 | 0.00 | 37 | 1017.3 |
| 20260503234926 | 80 | 163 | 0.0 | 1.0 | 0.00 | 0.00 | 0.00 | 37 | 1017.2 |
| 20260503234426 | 80 | 163 | 0.0 | 1.0 | 0.00 | 0.00 | 0.00 | 37 | 1017.2 |
| 20260503233926 | 80 | 164 | 0.0 | 2.0 | 0.00 | 0.00 | 0.00 | 35 | 1017.2 |
| 20260503233426 | 81 | 164 | 1.0 | 1.0 | 0.00 | 0.00 | 0.00 | 36 | 1017.3 |
| 20260503232929 | 81 | 164 | 1.0 | 1.0 | 0.00 | 0.00 | 0.00 | 35 | 1017.2 |
| 20260503232426 | 82 | 163 | 1.0 | 1.0 | 0.00 | 0.00 | 0.00 | 35 | 1017.3 |
| 20260503231927 | 82 | 164 | 0.0 | 1.0 | 0.00 | 0.00 | 0.00 | 36 | 1017.3 |
| 20260503231426 | 82 | 163 | 0.0 | 2.0 | 0.00 | 0.00 | 0.00 | 35 | 1017.2 |
| 20260503230926 | 82 | 164 | 0.0 | 1.0 | 0.00 | 0.00 | 0.00 | 37 | 1017.3 |
| 20260503230426 | 81 | 163 | 0.0 | 2.0 | 0.00 | 0.00 | 0.00 | 36 | 1017.3 |
| 20260503225926 | 81 | 162 | 1.0 | 1.0 | 0.00 | 0.00 | 0.00 | 37 | 1017.3 |
| 20260503225429 | 81 | 162 | 2.0 | 2.0 | 0.00 | 0.00 | 0.00 | 35 | 1017.4 |
| 20260503224926 | 81 | 162 | 0.0 | 2.0 | 0.00 | 0.00 | 0.00 | 35 | 1017.5 |
| 20260503224430 | 81 | 162 | 2.0 | 2.0 | 0.00 | 0.00 | 0.00 | 35 | 1017.5 |
| 20260503223926 | 81 | 162 | 1.0 | 2.0 | 0.00 | 0.00 | 0.00 | 38 | 1017.5 |
| 20260503223426 | 81 | 162 | 0.0 | 2.0 | 0.00 | 0.00 | 0.00 | 35 | 1017.7 |
| 20260503222926 | 81 | 162 | 2.0 | 2.0 | 0.00 | 0.00 | 0.00 | 36 | 1017.7 |
| 20260503222429 | 81 | 292 | 0.0 | 2.0 | 0.00 | 0.00 | 0.00 | 34 | 1017.9 |
| 20260503221926 | 81 | 292 | 0.0 | 2.0 | 0.00 | 0.00 | 0.00 | 34 | 1018.1 |
| 20260503221427 | 81 | 293 | 0.0 | 2.0 | 0.00 | 0.00 | 0.00 | 35 | 1018.1 |
| 20260503220927 | 81 | 293 | 1.0 | 1.0 | 0.00 | 0.00 | 0.00 | 36 | 1018.0 |
| 20260503220426 | 81 | 293 | 1.0 | 2.0 | 0.00 | 0.00 | 0.00 | 36 | 1017.8 |
| 20260503215926 | 80 | 311 | 1.0 | 1.0 | 0.00 | 0.00 | 0.00 | 37 | 1017.8 |
| 20260503215426 | 80 | 311 | 0.0 | 2.0 | 0.00 | 0.00 | 0.00 | 34 | 1017.8 |
| 20260503214926 | 80 | 311 | 2.0 | 2.0 | 0.00 | 0.00 | 0.00 | 36 | 1017.8 |
| 20260503214426 | 80 | 329 | 1.0 | 2.0 | 0.00 | 0.00 | 0.00 | 36 | 1018.0 |
| 20260503213926 | 80 | 329 | 1.0 | 1.0 | 0.00 | 0.00 | 0.00 | 35 | 1018.1 |
| 20260503213427 | 80 | 309 | 0.0 | 1.0 | 0.00 | 0.00 | 0.00 | 33 | 1018.3 |
| 20260503212926 | 80 | 309 | 0.0 | 2.0 | 0.00 | 0.00 | 0.00 | 35 | 1018.4 |
| 20260503212430 | 80 | 309 | 0.0 | 2.0 | 0.00 | 0.00 | 0.00 | 37 | 1018.5 |
| 20260503211927 | 80 | 309 | 0.0 | 3.0 | 0.00 | 0.00 | 0.00 | 37 | 1018.5 |
| 20260503211427 | 80 | 177 | 1.0 | 2.0 | 0.00 | 0.00 | 0.00 | 35 | 1018.5 |
| 20260503210926 | 80 | 9 | 0.0 | 2.0 | 0.00 | 0.00 | 0.00 | 35 | 1018.5 |
| 20260503210429 | 80 | 267 | 2.0 | 4.0 | 0.00 | 0.00 | 0.00 | 35 | 1018.6 |
| 20260503205927 | 81 | 279 | 3.0 | 4.0 | 0.00 | 0.00 | 0.00 | 33 | 1018.8 |
| 20260503205426 | 81 | 209 | 1.0 | 2.0 | 0.00 | 0.00 | 0.00 | 34 | 1018.9 |
| 20260503204926 | 81 | 209 | 0.0 | 2.0 | 0.00 | 0.00 | 0.00 | 33 | 1019.0 |
| 20260503204429 | 81 | 209 | 0.0 | 2.0 | 0.00 | 0.00 | 0.00 | 37 | 1019.1 |
| 20260503203926 | 81 | 210 | 0.0 | 3.0 | 0.00 | 0.00 | 0.00 | 35 | 1019.2 |
| 20260503203426 | 81 | 200 | 1.0 | 2.0 | 0.00 | 0.00 | 0.00 | 35 | 1019.3 |
| 20260503202926 | 82 | 200 | 0.0 | 2.0 | 0.00 | 0.00 | 0.00 | 34 | 1019.4 |
| 20260503202427 | 82 | 200 | 1.0 | 2.0 | 0.00 | 0.00 | 0.00 | 32 | 1019.6 |
| 20260503201926 | 83 | 217 | 1.0 | 2.0 | 0.00 | 0.00 | 0.00 | 33 | 1019.5 |
| 20260503201426 | 83 | 267 | 0.0 | 1.0 | 0.00 | 0.00 | 0.00 | 34 | 1019.5 |
| 20260503200930 | 83 | 267 | 0.0 | 1.0 | 0.00 | 0.00 | 0.00 | 33 | 1019.6 |
| 20260503200426 | 84 | 267 | 1.0 | 2.0 | 0.00 | 0.00 | 0.00 | 33 | 1019.8 |
| 20260503195926 | 84 | 267 | 1.0 | 3.0 | 0.00 | 0.00 | 0.00 | 33 | 1019.8 |
| 20260503195426 | 85 | 165 | 1.0 | 4.0 | 0.00 | 0.00 | 0.00 | 35 | 1019.9 |
| 20260503194927 | 85 | 165 | 1.0 | 2.0 | 0.00 | 0.00 | 0.00 | 34 | 1019.9 |
| 20260503194426 | 85 | 165 | 1.0 | 2.0 | 0.00 | 0.00 | 0.00 | 32 | 1020.1 |
| 20260503193926 | 85 | 165 | 1.0 | 2.0 | 0.00 | 0.00 | 0.00 | 32 | 1020.1 |
| 20260503193426 | 84 | 166 | 1.0 | 1.0 | 0.00 | 0.00 | 0.00 | 35 | 1020.2 |
| 20260503192926 | 84 | 166 | 0.0 | 2.0 | 0.00 | 0.00 | 0.00 | 33 | 1020.3 |
| 20260503192426 | 84 | 166 | 1.0 | 2.0 | 0.00 | 0.00 | 0.00 | 34 | 1020.4 |
| 20260503191926 | 84 | 183 | 0.0 | 2.0 | 0.00 | 0.00 | 0.00 | 34 | 1020.6 |
| 20260503191427 | 84 | 181 | 1.0 | 2.0 | 0.00 | 0.00 | 0.00 | 33 | 1020.6 |
| 20260503190926 | 83 | 139 | 1.0 | 2.0 | 0.00 | 0.00 | 0.00 | 35 | 1020.7 |
| 20260503190426 | 83 | 139 | 0.0 | 4.0 | 0.00 | 0.00 | 0.00 | 35 | 1020.7 |
| 20260503185926 | 83 | 139 | 1.0 | 4.0 | 0.00 | 0.00 | 0.00 | 35 | 1020.7 |
| 20260503185426 | 83 | 200 | 2.0 | 2.0 | 0.00 | 0.00 | 0.00 | 36 | 1020.7 |
| 20260503184926 | 83 | 155 | 1.0 | 4.0 | 0.00 | 0.00 | 0.00 | 34 | 1020.9 |
| 20260503184426 | 83 | 211 | 1.0 | 1.0 | 0.00 | 0.00 | 0.00 | 38 | 1021.0 |
| 20260503183930 | 82 | 212 | 0.0 | 1.0 | 0.00 | 0.00 | 0.00 | 36 | 1021.0 |
| 20260503183426 | 82 | 214 | 1.0 | 2.0 | 0.00 | 0.00 | 0.00 | 34 | 1021.1 |
| 20260503182926 | 83 | 198 | 1.0 | 2.0 | 0.00 | 0.00 | 0.00 | 33 | 1021.2 |
| 20260503182426 | 83 | 120 | 1.0 | 2.0 | 0.00 | 0.00 | 0.00 | 36 | 1021.1 |
| 20260503181929 | 83 | 198 | 1.0 | 1.0 | 0.00 | 0.00 | 0.00 | 39 | 1021.3 |
| 20260503181427 | 82 | 198 | 0.0 | 2.0 | 0.00 | 0.00 | 0.00 | 37 | 1021.4 |
| 20260503180926 | 82 | 198 | 0.0 | 2.0 | 0.00 | 0.00 | 0.00 | 39 | 1021.5 |
| 20260503180427 | 82 | 102 | 1.0 | 2.0 | 0.00 | 0.00 | 0.00 | 38 | 1021.6 |
| 20260503175926 | 82 | 101 | 1.0 | 2.0 | 0.00 | 0.00 | 0.00 | 36 | 1021.6 |
| 20260503175429 | 82 | 84 | 1.0 | 2.0 | 0.00 | 0.00 | 0.00 | 39 | 1021.8 |
| 20260503174929 | 82 | 83 | 1.0 | 1.0 | 0.00 | 0.00 | 0.00 | 37 | 1021.8 |
| 20260503174426 | 81 | 83 | 0.0 | 4.0 | 0.00 | 0.00 | 0.00 | 37 | 1022.0 |
| 20260503173926 | 81 | 137 | 2.0 | 3.0 | 0.00 | 0.00 | 0.00 | 39 | 1022.0 |
| 20260503173429 | 81 | 184 | 1.0 | 3.0 | 0.00 | 0.00 | 0.00 | 41 | 1022.1 |
| 20260503172930 | 81 | 228 | 0.0 | 2.0 | 0.00 | 0.00 | 0.00 | 38 | 1022.1 |
| 20260503172426 | 80 | 228 | 1.0 | 2.0 | 0.00 | 0.00 | 0.00 | 39 | 1022.2 |
| 20260503171926 | 80 | 228 | 0.0 | 2.0 | 0.00 | 0.00 | 0.00 | 36 | 1022.3 |
| 20260503171426 | 80 | 221 | 0.0 | 1.0 | 0.00 | 0.00 | 0.00 | 39 | 1022.5 |
| 20260503170926 | 80 | 221 | 1.0 | 2.0 | 0.00 | 0.00 | 0.00 | 39 | 1022.3 |
| 20260503170427 | 80 | 223 | 0.0 | 1.0 | 0.00 | 0.00 | 0.00 | 40 | 1022.4 |
| 20260503150926 | 71 | 279 | 0.0 | 1.0 | 0.00 | 0.00 | 0.00 | 56 | 1022.4 |
| 20260503150426 | 71 | 279 | 0.0 | 1.0 | 0.00 | 0.00 | 0.00 | 58 | 1022.3 |
| 20260503130926 | 59 | 279 | 0.0 | 0.0 | 0.00 | 0.00 | 0.00 | 95 | 1021.8 |
| 20260503130426 | 58 | 279 | 0.0 | 0.0 | 0.00 | 0.00 | 0.00 | 95 | 1021.8 |
| 20260503110429 | 57 | 279 | 0.0 | 0.0 | 0.00 | 0.00 | 0.00 | 92 | 1020.7 |
| 20260503090426 | 58 | 279 | 0.0 | 0.0 | 0.00 | 0.00 | 0.00 | 90 | 1020.4 |
| 20260503081427 | 59 | 279 | 0.0 | 0.0 | 0.00 | 0.00 | 0.00 | 88 | 1020.7 |
| 20260503080926 | 59 | 279 | 0.0 | 0.0 | 0.00 | 0.00 | 0.00 | 88 | 1020.7 |
| 20260503080429 | 59 | 279 | 0.0 | 0.0 | 0.00 | 0.00 | 0.00 | 88 | 1020.8 |
| 20260503072926 | 60 | 279 | 0.0 | 0.0 | 0.00 | 0.00 | 0.00 | 88 | 1020.6 |
| 20260503072426 | 60 | 279 | 0.0 | 0.0 | 0.00 | 0.00 | 0.00 | 87 | 1020.5 |
| 20260503071926 | 60 | 279 | 0.0 | 0.0 | 0.00 | 0.00 | 0.00 | 87 | 1020.6 |
| 20260503071426 | 60 | 279 | 0.0 | 0.0 | 0.00 | 0.00 | 0.00 | 87 | 1020.6 |
| 20260503070926 | 60 | 279 | 0.0 | 0.0 | 0.00 | 0.00 | 0.00 | 87 | 1020.8 |
| 20260503070427 | 60 | 279 | 0.0 | 0.0 | 0.00 | 0.00 | 0.00 | 86 | 1020.7 |
| 20260503054926 | 62 | 279 | 0.0 | 0.0 | 0.00 | 0.00 | 0.00 | 83 | 1020.8 |
| 20260503054426 | 62 | 279 | 0.0 | 0.0 | 0.00 | 0.00 | 0.00 | 83 | 1020.8 |
| 20260503053926 | 62 | 279 | 0.0 | 0.0 | 0.00 | 0.00 | 0.00 | 82 | 1020.8 |
| 20260503053426 | 62 | 279 | 0.0 | 0.0 | 0.00 | 0.00 | 0.00 | 82 | 1020.6 |
| 20260503052926 | 62 | 279 | 0.0 | 0.0 | 0.00 | 0.00 | 0.00 | 82 | 1020.5 |
| 20260503052426 | 62 | 279 | 0.0 | 0.0 | 0.00 | 0.00 | 0.00 | 81 | 1020.6 |
| 20260503051927 | 62 | 279 | 0.0 | 0.0 | 0.00 | 0.00 | 0.00 | 81 | 1020.6 |
| 20260503051426 | 62 | 279 | 0.0 | 0.0 | 0.00 | 0.00 | 0.00 | 81 | 1020.7 |
| 20260503050926 | 62 | 279 | 0.0 | 0.0 | 0.00 | 0.00 | 0.00 | 81 | 1020.7 |
| 20260503050426 | 63 | 279 | 0.0 | 0.0 | 0.00 | 0.00 | 0.00 | 80 | 1020.6 |
| 20260503045926 | 63 | 279 | 0.0 | 0.0 | 0.00 | 0.00 | 0.00 | 80 | 1020.6 |
| 20260503045426 | 63 | 279 | 0.0 | 0.0 | 0.00 | 0.00 | 0.00 | 79 | 1020.6 |
| 20260503044929 | 63 | 279 | 0.0 | 0.0 | 0.00 | 0.00 | 0.00 | 79 | 1020.5 |
| 20260503044430 | 63 | 279 | 0.0 | 0.0 | 0.00 | 0.00 | 0.00 | 79 | 1020.6 |
| 20260503043929 | 63 | 279 | 0.0 | 0.0 | 0.00 | 0.00 | 0.00 | 78 | 1020.5 |
| 20260503043426 | 63 | 279 | 0.0 | 0.0 | 0.00 | 0.00 | 0.00 | 78 | 1020.5 |
| 20260503042926 | 63 | 279 | 0.0 | 0.0 | 0.00 | 0.00 | 0.00 | 78 | 1020.4 |
| 20260503042429 | 63 | 279 | 0.0 | 0.0 | 0.00 | 0.00 | 0.00 | 76 | 1020.4 |
| 20260503041926 | 64 | 279 | 0.0 | 0.0 | 0.00 | 0.00 | 0.00 | 76 | 1020.4 |
| 20260503041427 | 64 | 279 | 0.0 | 0.0 | 0.00 | 0.00 | 0.00 | 77 | 1020.6 |
| 20260503040927 | 64 | 279 | 0.0 | 0.0 | 0.00 | 0.00 | 0.00 | 77 | 1020.6 |
| 20260503040426 | 64 | 279 | 0.0 | 0.0 | 0.00 | 0.00 | 0.00 | 75 | 1020.6 |
| 20260503035926 | 64 | 279 | 0.0 | 0.0 | 0.00 | 0.00 | 0.00 | 75 | 1020.5 |
| 20260503035426 | 64 | 279 | 0.0 | 0.0 | 0.00 | 0.00 | 0.00 | 76 | 1020.2 |
| 20260503034929 | 64 | 279 | 0.0 | 0.0 | 0.00 | 0.00 | 0.00 | 75 | 1020.2 |
| 20260503034426 | 65 | 279 | 0.0 | 0.0 | 0.00 | 0.00 | 0.00 | 75 | 1020.1 |
| 20260503033926 | 65 | 279 | 0.0 | 0.0 | 0.00 | 0.00 | 0.00 | 73 | 1020.0 |
| 20260503033427 | 65 | 279 | 0.0 | 0.0 | 0.00 | 0.00 | 0.00 | 74 | 1019.9 |
| 20260503032926 | 65 | 279 | 0.0 | 0.0 | 0.00 | 0.00 | 0.00 | 73 | 1019.9 |
| 20260503032426 | 65 | 279 | 0.0 | 0.0 | 0.00 | 0.00 | 0.00 | 72 | 1019.7 |
| 20260503031926 | 66 | 279 | 0.0 | 0.0 | 0.00 | 0.00 | 0.00 | 73 | 1019.8 |
| 20260503031426 | 66 | 279 | 0.0 | 0.0 | 0.00 | 0.00 | 0.00 | 72 | 1019.8 |
| 20260503030926 | 66 | 279 | 0.0 | 0.0 | 0.00 | 0.00 | 0.00 | 71 | 1019.7 |
| 20260503030426 | 66 | 279 | 0.0 | 0.0 | 0.00 | 0.00 | 0.00 | 70 | 1019.8 |
| 20260503025927 | 66 | 279 | 0.0 | 0.0 | 0.00 | 0.00 | 0.00 | 70 | 1019.8 |
| 20260503025426 | 67 | 279 | 0.0 | 0.0 | 0.00 | 0.00 | 0.00 | 70 | 1019.8 |
| 20260503024926 | 67 | 279 | 0.0 | 0.0 | 0.00 | 0.00 | 0.00 | 69 | 1019.8 |
| 20260503024426 | 67 | 279 | 0.0 | 0.0 | 0.00 | 0.00 | 0.00 | 69 | 1019.7 |
| 20260503023929 | 67 | 279 | 0.0 | 0.0 | 0.00 | 0.00 | 0.00 | 68 | 1019.7 |
| 20260503023426 | 67 | 279 | 0.0 | 0.0 | 0.00 | 0.00 | 0.00 | 67 | 1019.6 |
| 20260503022926 | 68 | 279 | 0.0 | 0.0 | 0.00 | 0.00 | 0.00 | 65 | 1019.6 |
| 20260503022427 | 68 | 279 | 0.0 | 0.0 | 0.00 | 0.01 | 0.00 | 65 | 1019.5 |
| 20260503021929 | 68 | 279 | 0.0 | 0.0 | 0.00 | 0.01 | 0.00 | 65 | 1019.5 |
| 20260503021426 | 68 | 279 | 0.0 | 0.0 | 0.00 | 0.02 | 0.00 | 65 | 1019.5 |
| 20260503020929 | 69 | 279 | 0.0 | 0.0 | 0.00 | 0.03 | 0.00 | 63 | 1019.5 |
| 20260503020426 | 69 | 279 | 0.0 | 0.0 | 0.00 | 0.04 | 0.00 | 61 | 1019.4 |
| 20260503015926 | 69 | 279 | 0.0 | 0.0 | 0.00 | 0.04 | 0.00 | 60 | 1019.3 |
| 20260503015426 | 69 | 279 | 0.0 | 0.0 | 0.00 | 0.05 | 0.00 | 61 | 1019.2 |
| 20260503014927 | 70 | 279 | 0.0 | 0.0 | 0.00 | 0.05 | 0.00 | 58 | 1019.1 |
| 20260503014426 | 70 | 279 | 0.0 | 0.0 | 0.00 | 0.06 | 0.00 | 59 | 1019.0 |
| 20260503013926 | 70 | 279 | 0.0 | 0.0 | 0.00 | 0.06 | 0.00 | 58 | 1018.8 |
| 20260503013426 | 71 | 279 | 0.0 | 0.0 | 0.00 | 0.07 | 0.00 | 57 | 1018.8 |
| 20260503012929 | 71 | 279 | 0.0 | 0.0 | 0.00 | 0.08 | 0.00 | 57 | 1018.8 |
| 20260503012426 | 71 | 279 | 0.0 | 0.0 | 0.00 | 0.10 | 0.00 | 56 | 1018.7 |
| 20260503011926 | 71 | 279 | 0.0 | 0.0 | 0.00 | 0.11 | 0.00 | 54 | 1018.7 |
| 20260503011427 | 72 | 279 | 0.0 | 0.0 | 0.00 | 0.12 | 0.00 | 53 | 1018.7 |
| 20260503010926 | 72 | 279 | 0.0 | 0.0 | 0.00 | 0.13 | 0.00 | 55 | 1018.7 |
| 20260503010429 | 72 | 279 | 0.0 | 0.0 | 0.00 | 0.13 | 0.00 | 51 | 1018.7 |
| 20260503005926 | 72 | 279 | 0.0 | 0.0 | 0.00 | 0.13 | 0.00 | 52 | 1018.7 |
| 20260503005426 | 73 | 279 | 0.0 | 0.0 | 0.00 | 0.15 | 0.00 | 50 | 1018.5 |
| 20260503004926 | 73 | 279 | 0.0 | 0.0 | 0.00 | 0.15 | 0.00 | 49 | 1018.5 |
| 20260503004426 | 73 | 279 | 0.0 | 1.0 | 0.00 | 0.15 | 0.00 | 53 | 1018.4 |
| 20260503003930 | 73 | 279 | 1.0 | 2.0 | 0.00 | 0.15 | 0.00 | 49 | 1018.3 |
| 20260503003426 | 74 | 282 | 0.0 | 1.0 | 0.00 | 0.16 | 0.00 | 50 | 1018.3 |